TIMESTAMP,CO2_1_1_1,H2O_1_1_1,TAU_1_1_1,TAU_SSITC_TEST_1_1_1,H_1_1_1,H_SSITC_TEST_1_1_1,LE_1_1_1,LE_SSITC_TEST_1_1_1,FC_1_1_1,FC_SSITC_TEST_1_1_1,WD_0_0_1,WS_0_0_1,WS_MAX_0_0_1,U_SIGMA_0_0_1,V_SIGMA_0_0_1,W_SIGMA_0_0_1,USTAR_0_0_1,MO_LENGTH_0_0_1,ZL_0_0_1,FETCH_MAX_0_0_1,FETCH_70_0_0_1,FETCH_80_0_0_1,FETCH_90_0_0_1,PA_0_0_1,RH_0_0_1,TA_0_0_1,VPD_0_0_1,T_SONIC_0_0_1,T_SONIC_SIGMA_0_0_1
[yyyymmddHHMMSS],[mmolCO2 mol-1],[mmolH2O mol-1],[kg m-1 s-2],[#],[W m-2],[#],[W m-2],[#],[umolCO2 m-2 s-1],[#],[Decimal degrees],[m s-1],[m s-1],[m s-1],[m s-1],[m s-1],[m s-1],[m],[#],[m],[m],[m],[m],[kPa],[%],[deg C],[hPa],[deg C],[deg C]
20240310003000,419.12366159195216,3.2098686507415719,0.52199860542016463,0,-20.122811205432814,0,-2.1744700658750800,2,1.2041555580229566,0,325.31363561471187,3.6373805330472471,10.148348909733542,1.5780328402981383,1.1923799889013182,0.81104391983708135,0.65510246278799000,1168.2381327869521,1.6263807409430772E-002,105.55207788982216,192.98286249121435,230.95119789116356,289.12349409362338,94.437847058060029,61.981999999999999,-2.9873333333333107,1.8598310708725734,-2.7430108261158352,0.14882271923535986
20240310010000,419.28687451448809,3.2657191784927968,0.41180864839396941,0,-20.547170843232720,1,-3.0071520318714029,2,1.0046847940971262,0,324.63173102285919,3.1401821749257901,7.1415282788184538,1.1542402337003681,0.93067418603120577,0.70586865003647115,0.58128985549951118,799.46888462085667,2.3765777962716630E-002,107.19881381398618,195.99362096007184,234.55430681994346,293.63415891199639,94.462689780852401,65.322000000000003,-3.4560000000000173,1.6381368982325142,-3.1898260390630071,0.13750063987324296
20240310013000,419.37183716934896,3.3012879992641673,0.26787078784180079,0,-24.123935591228982,0,-2.4728669682716578,1,0.83363480975830839,0,317.19670057692485,3.1553676282739076,7.2180055230535238,1.0771342703418936,0.85356763411353243,0.63037595299388116,0.46847469787749524,356.49478084806606,5.3296712941493470E-002,98.747043455700833,180.54108919122473,216.06157292431598,270.48345050230444,94.483043971354178,67.774333333333331,-3.8006666666666433,1.4835098192895846,-3.5229182216503432,0.12140760399531204
20240310020000,419.52937234121174,3.3628040180688710,0.23606655455870687,0,-26.483126255290184,0,-1.6545218903104186,1,0.84336070698151422,0,311.69230108934028,3.2367629212523190,7.3031645289953673,1.0355074419154366,0.91856150266992409,0.61786677816800595,0.43954945216211511,268.25963354901398,7.0826906562997644E-002,95.355383853276876,174.34005372364439,208.64051723617959,261.19316939526090,94.499921939463860,70.341666666666669,-4.0476666666666574,1.3402430827940475,-3.7535134248245186,0.10825181265617745
20240310023000,419.55472143031403,3.4725428935727609,0.31596317876610697,0,-32.266929845811674,0,1.8524332467435698,2,1.0392234462139367,0,307.24250785716862,3.5965857236035785,8.1668024699239563,1.2111806009550621,0.98409823897236526,0.70559557350746760,0.50837301632889698,340.67263356232183,5.5772017262796028E-002,96.328814235788201,176.11979492257220,210.77041289905145,263.85954602256271,94.511844409939243,73.379999999999995,-4.1813333333333276,1.1909147671944351,-3.8785819498697833,0.11624579751112928
20240310030000,419.61715576168928,3.5470423022458144,0.21613337636436386,0,-28.875693944464150,0,-1.5336367142876430,1,0.89804119048067799,0,308.97102459445921,3.3070914596053629,7.2184759004881851,1.0196328687224732,0.84535338331936338,0.64110242721453237,0.42035178683755303,215.23118160941422,8.8277171820204975E-002,89.331223289510049,163.32596690561019,195.45946835201724,244.69206031245025,94.526123986762144,75.566000000000003,-4.2873333333333221,1.0844332696270693,-3.9758252911037744,0.10967772105472204
20240310033000,419.73143299171568,3.6067948902134979,0.16057154923585440,0,-25.443589788063591,0,-0.24650997602473820,0,0.83081649649985567,0,304.00034829614191,3.5070212252315991,8.0959653317488574,1.0278004975858996,0.91352822240928222,0.62306074940316625,0.36220701539609773,156.28398951757043,0.12157355375077561,81.132726608951714,148.33650019714449,177.52090506519966,222.23510774471154,94.532200897973041,77.711333333333329,-4.4363333333333230,0.97817694618762296,-4.1128736934922472,0.11567434869831017
20240310040000,419.81140924961153,3.5990948071050268,0.30323676507052338,0,-37.351459424862355,0,-2.3772636725589149,1,1.1619268964084659,0,304.10337498018544,3.6223270540481907,7.8110466147105715,1.1405318310899684,0.93325321127701688,0.69589950372602538,0.49765681176743382,276.12330464198021,6.8809838505428877E-002,95.755039712795863,175.07075209854392,209.51497656796536,262.28788871153745,94.532048601562508,78.150000000000006,-4.5393333333333317,0.95150548198471885,-4.2225489425659362,0.13211406978111762
20240310043000,419.95593912836262,3.4717893416277388,0.25792098835070165,0,-35.246970393453402,0,6.1749633369238319,1,1.1178006941340068,0,311.12851010741542,3.8549196806601196,8.5895306614317395,1.0723665531425177,0.98881010502550948,0.68797920970426563,0.45880179748837047,229.27847990210407,8.2868658271428280E-002,90.551309855079680,165.55667427412337,198.12905534151594,248.03406643858634,94.531643879991321,76.432333333333332,-4.7219999999999800,1.0122470600717701,-4.4019930564032279,0.13611664828000497
20240310050000,419.85293643815282,3.3043516307364098,0.31137953763614756,0,-41.444321659625651,0,2.0152733898742943,1,1.2587715430738309,0,312.45080594084965,4.0855603520416324,9.0936565685122517,1.2163053407520050,1.0720796082324084,0.71724505301892849,0.50411647128560766,258.67198525568182,7.3452097958036061E-002,94.437734632126777,172.66229827817384,206.63267247267117,258.67958601087543,94.538780561414924,72.519333333333336,-4.6796666666666624,1.1840940340982564,-4.3734179238213073,0.16145590616935956
20240310053000,419.77209767837360,3.1500260044176991,0.35886980819197323,0,-40.198362792127682,0,0.58133532393135601,2,1.2938525587437748,0,313.21719568069909,3.7068657668941016,7.5373389291430275,1.1613964112432922,0.93456484813113139,0.70551708884664732,0.54126715230984102,330.11208290550309,5.7556208887509529E-002,101.29271393870897,185.19538673412202,221.63157835898491,277.45643634562038,94.545839548963258,68.582999999999998,-4.5729999999999791,1.3646499845566233,-4.2924334442062104,0.12418429754381273
20240310060000,419.68793845731557,3.0694065331067910,0.29903525417233034,0,-35.373690071296124,0,1.2818113528412891,0,1.0054834632836742,0,315.24053872054282,3.7040195722152434,7.6771144904389601,1.1562497098804865,0.93637070932440969,0.65881475082702035,0.49397890334011879,285.16344553575698,6.6628455706527673E-002,99.451415664553338,181.82890623700098,217.60276101504721,272.41283510786809,94.552010669921870,67.302999999999997,-4.6659999999999968,1.4103118182404739,-4.3835311050414703,0.13063822181213194
20240310063000,419.66931150893066,3.0272002586239926,0.24437504550981071,0,-37.724017217498002,0,9.6099818133769749E-002,2,0.94523925032126088,0,316.61301600591025,3.6935270997340979,7.9999711863281400,1.1008331958805009,0.98481171885532581,0.64928927025639716,0.44643923698150667,197.39508831761242,9.6253661435732593E-002,92.792783991371422,169.65480387677434,203.03346979898399,254.17381136034541,94.558611031467009,66.971666666666664,-4.7830000000000155,1.4120636304800411,-4.5092340104844766,0.13248049794127276
20240310070000,419.65493419832802,3.0110074280528476,0.32771395677176662,0,-45.469325535975848,0,1.2085453908612460,1,1.0389641476538689,0,315.75996669120639,3.5887580346327685,7.6509986686675200,1.2192992258753144,0.95394912534075560,0.63190801537823649,0.51689261570667266,254.20535295845582,7.4742721893449368E-002,106.62328795948633,194.94137614348929,233.29503852157026,292.05770443264544,94.569724518663193,66.959666666666664,-4.8500000000000227,1.4054375970527770,-4.5569232076009030,0.15069875306091901
20240310073000,419.69455745158973,2.9887445325153212,0.44294452763687353,0,-49.589566725744007,0,1.0206540131165853,0,0.99066428082588542,0,320.15654707678812,3.4337905109717028,8.4147156176230951,1.2904414809627454,0.98250014865359958,0.67552826636609475,0.60077309627944986,366.05438129040004,5.1904856139194322E-002,114.00094717834656,208.43009017928972,249.43758415678843,312.26625602378931,94.601462611111117,66.750666666666660,-4.9023333333333312,1.4087387448246511,-4.6294914644029177,0.14365208370976093
20240310080000,419.74536538090518,2.9488899070671848,0.30524525974836253,0,-44.153887910052561,0,0.48372658710525895,2,1.0971540929577568,0,316.74137683547121,3.5017376239007856,7.2662112654506847,1.0970504053100258,0.92582509867444573,0.64787801501193121,0.49853319959625786,234.95735083646400,8.0865739813454310E-002,101.53495336533352,185.63827766429424,222.16160568647913,278.11996766431247,94.624227583333337,66.561666666666667,-5.0389999999999873,1.4021607971526964,-4.7616942749023110,0.14903620921982377
20240310083000,419.79177171685308,2.9110139200713130,0.25932850881082953,0,-46.369920402869319,0,0.80461290847397582,0,0.97138771220428477,0,311.94198196453613,3.4398685801715820,6.6440365933860344,0.98961446012072429,0.81621769825022805,0.60587601933725643,0.45931297298324220,174.99307595542419,0.10857572447517781,100.33093479731464,183.43694771992884,219.52717597058651,274.82197427281733,94.642158914723638,66.596999999999994,-5.2139999999999986,1.3822169286178063,-4.9183046093687608,0.14572152994581711
20240310090000,419.87001620963241,2.9133396938296801,0.24532361846125583,0,-44.917399047679510,0,0.43156194425817496,0,0.88937950692141088,0,309.21289837185827,3.3053063026790390,7.2907841773512709,0.99140968705225085,0.74847990843040646,0.59579287553044058,0.44659595251929335,166.06439948580146,0.11441344477703365,99.428407028477864,181.78683911202691,217.55241741054692,272.34981088902310,94.647124522082322,67.453000000000003,-5.3709999999999809,1.3308365616496303,-5.0852947700975619,0.16176444037924165
20240310093000,420.00132438367194,2.9022534548632528,0.15894720350163666,0,-34.889217854071028,0,2.8173254739787691E-002,2,0.71332505386993728,0,314.23235084145091,3.4382801618936560,6.4790452731798132,0.87620678202409019,0.82752883912261188,0.53714037916987722,0.35932283095077078,111.34438290578061,0.17064174684121930,90.776306621294836,165.96804012180272,198.62135519688465,248.65036743908198,94.634997932151293,68.546999999999997,-5.6343333333333590,1.2605997470898394,-5.3482751547942371,0.17564823833457727
20240310100000,420.10503468915897,2.8890534883221171,0.22091540970849105,0,-46.610633455867990,0,0.15202687221180367,1,1.0143959888430534,0,316.82849135402120,3.5654567390066014,7.5321396850748590,1.0364373916140071,0.86595072211125745,0.61405723704214410,0.42339103299062525,136.36219481518705,0.13933480629107559,92.999612964696155,170.03295320472967,203.48601796386055,254.74034796145204,94.650525980251743,69.494000000000000,-5.8720000000000141,1.2006959603806400,-5.5749658550686263,0.16554902578847813
20240310103000,419.97347388663650,2.8853621435349956,0.27781486187441579,0,-44.838198378328102,0,0.26341046980580501,0,1.1545432588180640,0,319.24813225160142,3.7231764331460289,7.8141962072767015,1.0020700551137511,0.91462624088278188,0.62846225202632955,0.47478566869812577,199.94541428249320,9.5025935294298966E-002,100.05288664415681,182.92858701704620,218.91879804637114,274.06035730445041,94.684915955288446,68.972999999999999,-5.7853333333333126,1.2293011171609083,-5.5015077385985478,0.15852618187180395
20240310110000,420.15089555259846,2.8702169948353995,0.14399044484318702,0,-27.527537070981587,0,9.3870634386679933E-002,1,0.59883303177739489,0,316.10249304932654,3.2159970092967987,6.2072190284820579,0.78455041490790922,0.83302335203263156,0.48785222216589852,0.34158934636703170,121.30885472073233,0.15662500518812333,94.151604082687115,172.13916037713994,206.00661001641785,257.89583010691990,94.710067938368056,70.084999999999994,-6.0603333333333467,1.1606233095469867,-5.7709247300889501,0.20384572970286158
20240310113000,420.20649393021040,2.8767657359594101,0.10050196214962751,0,-31.195087222678573,0,-0.39128257045970533,1,0.66728199175326897,0,308.75660837990108,3.5058831512804041,6.0507547578569953,0.82982854934574579,0.64693651913819439,0.44109684182379927,0.28522610332472320,62.338753152155043,0.30478633336834993,88.344426573754220,161.52178778653808,193.30032674026458,241.98907122760016,94.749759832031259,71.239333333333335,-6.2386666666666883,1.1007233933775917,-5.9181361770629337,0.19351495839526836
20240310120000,420.18401361015128,2.8823280955322326,0.15071885315266192,0,-34.393399689855151,0,-0.40619316672296274,2,0.65537829228031086,0,307.49532374173975,3.4408862608935040,5.9698961204724430,0.80432981489710564,0.67627014728482115,0.47573225986320666,0.34924141555035337,103.81812542387698,0.18301235860718226,97.783462115496519,178.77935518282507,213.95322726940569,267.84405192775347,94.778531930989587,71.362333333333339,-6.2320000000000277,1.0965753011216510,-5.9273942201402292,0.18335723150649000
20240310123000,420.13822696165602,2.8699611376378966,0.16578284889215159,0,-47.145995386490107,0,0.32897238543331153,1,0.78614478802744281,0,308.35714679531031,3.0854861942940097,6.1358671356257393,0.79152759405436379,0.73028488391314839,0.46272676767810145,0.36621064198998515,87.345076101057188,0.21752800327310073,103.84365598991437,189.85932238496432,227.21311814725689,284.44386183093121,94.815250765624995,71.054666666666662,-6.2266666666666879,1.1088087439143521,-5.9121186854044367,0.20966420635022986
20240310130000,420.00557639059855,2.8774537459467506,0.14153954795144161,0,-25.843690042491282,0,0.31201519313663356,0,0.67530254355389996,0,308.56779431579025,3.1739080793965702,5.9027950321690366,0.80702547848095618,0.73377039858368553,0.43650423346495787,0.33835020968719304,125.68363885908472,0.15117321691570862,102.13093120247085,186.72791522796342,223.46562355287421,279.75244329264984,94.828421535590266,71.277333333333331,-6.2316666666666833,1.0998581238575884,-5.9627093887328897,0.17907506971050763
20240310133000,419.93009872422920,2.9163935938056316,0.15947580277189580,0,3.3718729096179252,2,1.8725070872520959,1,0.67021324181736630,0,306.46745343312557,2.6385407603749682,5.3419267867734623,0.74231500068947576,0.69119038626176121,0.49760104398908506,0.35935040160105997,-1154.2041751765773,-1.6461558889347513E-002,96.508236801886042,176.44783659729151,211.16299500067768,264.35101222831190,94.847174552951387,70.359999999999999,-5.8836666666666702,1.1655727390424262,-5.6541409098306872,0.15139981527822233
20240310140000,419.80232471859779,2.9947110315059930,0.17915940563456445,0,19.582730569462580,0,1.4299215789797322,1,0.80887334819770962,0,308.64860026586939,2.8279524432002181,6.5314694516850968,0.98128253261547282,0.84277330001320505,0.56129435712200726,0.38136033913829048,-237.57247734273582,-7.9975594027205013E-002,91.911695790938055,168.04389363771347,201.10562167504406,251.76037427595315,94.863930333405108,68.457333333333338,-5.1726666666666574,1.3093355042268651,-4.9683276628649651,0.26638506924431826
20240310143000,419.63951793874264,3.1041798227058837,0.26409462589849797,0,51.720539101551424,0,3.1680611133275822,0,0.81388573430678013,0,318.40495166351548,2.6401149835507280,6.3652636193677417,1.1143215942178795,0.93252961116251776,0.66825299805782090,0.46392442487383118,-161.95847053269904,-0.11731402462314525,93.510409216955694,170.96685166396915,204.60365589857557,256.13949803197329,94.879083246093757,65.388666666666666,-4.0876666666666779,1.5593718098334193,-3.9109595650567144,0.38305875822580460
20240310150000,419.26953868094915,2.9844349724630082,0.72131238707944834,0,139.07666022709853,0,-6.7049372285338942,2,1.7900621596790027,0,324.36975981374280,3.3248649021967149,8.4033170665944699,1.6089553126766523,1.1843297514210120,0.81196827847402309,0.76852679010865710,-273.72438171336984,-6.9412888545295273E-002,119.82594384385054,219.08004187123200,262.18285629642759,328.22182433360661,94.838714411024327,57.546999999999997,-2.9113333333333458,2.0885744242800159,-2.7789573304917212,0.34758275833222291
20240310153000,419.84135642862901,2.8067127552165982,0.78911450963077467,0,129.87349348078058,0,9.8945203708132450,0,-0.26289557551927423,2,329.12682529707860,3.4623775600386488,9.0697474222145935,1.6135396644983067,1.2430027387515394,0.84640392984075907,0.80542727391207514,-337.06863138886257,-5.6368342321598180E-002,120.34105885201916,220.02183639366984,263.30994380210836,329.63280414565003,94.709598396701395,51.234666666666669,-2.1913333333333185,2.5307877566269306,-2.1361528998480708,0.32969354227590614
20240310160000,419.67638022362928,2.8231541624423642,0.36217864452166526,0,102.51773443462224,0,5.3035039661709211,0,0.80474000343835006,0,329.65436260777585,3.7211842316385595,9.1007227050440669,1.5305672326597759,1.5657604210110287,0.75660657972029244,0.54632146586813346,-133.25522705571413,-0.14258352501291438,96.497801907665490,176.42875828261754,211.14016313068248,264.32242943640614,94.701653906423630,49.159666666666666,-1.5529999999999973,2.7657192787625764,-1.5202157066455584,0.40467542575907528
20240310163000,419.39409408232154,2.7475358492350481,0.79459752699430486,0,211.16725006616272,0,17.349556664267737,0,0.27382182930033289,2,336.79188822018921,2.9192856966012228,9.7409548393901186,1.5912026296834747,1.5103165916237931,0.82885840744560757,0.81023058309509199,-211.03963960590164,-9.0030479750064327E-002,122.95820877735635,224.80682115434351,269.03634845847444,336.80158325552406,94.710012937499997,45.390666666666668,-0.83466666666669198,3.1315262480287296,-0.81472833167185854,0.42260030968171092
20240310170000,419.26154834635679,2.6024353887344671,0.51268117773585375,0,192.10777597784829,0,32.207156233951153,1,1.4244336009588467,0,323.55819588747772,3.2096738487175247,9.1234434342462460,1.4804002531163778,1.7679306558691761,0.89382650105620531,0.65146202518868235,-120.57668880522441,-0.15757606373394423,97.221787644986904,177.75243511384900,212.72426622588662,266.30553853509019,94.704833203993061,41.328666666666663,-0.29433333333332712,3.4997993184111755,-0.40300578986273194,0.40783915419900674
20240310173000,419.06528756259189,2.3936310171754043,0.73120870179400121,0,217.91182353362672,0,24.546818473875884,0,0.48175026486527250,1,322.07022525864738,3.6363786987594855,10.129733697299930,1.7131179058249055,1.6803851895545117,0.88847362160138477,0.77858677604246895,-181.45503458640962,-0.10470913658200055,112.66392772414700,205.98559219652901,246.51214440492018,308.60395259975974,94.704663219618055,36.856999999999999,0.13033333333333985,3.8846355159327564,-1.9108679029613995E-002,0.43427030127308502
20240310180000,418.95164817276026,2.3174173643136320,0.51045937592212376,0,169.15019090820306,0,9.9485958070639118,0,0.53539372354797832,0,338.22984911093670,2.5964256325698618,8.8273747717220523,1.5865740400892572,1.4590666425006691,0.79914591416952374,0.65126377748361153,-136.79360795534163,-0.13889537884111400,106.30643939892475,194.36207592111734,232.60176411073229,291.18980713721066,94.686484790364588,34.227666666666664,0.70299999999997453,4.2176902831550676,0.50555110507542622,0.40183654861824442
20240310183000,418.84501234158313,2.2195976839806719,0.64459171896008927,0,272.75995951064499,1,17.647302663366929,0,-0.40461553340350859,2,322.58938634501260,2.2720156713705300,9.5554096905227457,1.5287220683327918,1.2200296136344511,0.77806321648700250,0.73247515360847182,-120.67209532693998,-0.15745147996745076,119.31012767609630,218.13696540544828,261.05423463197474,326.80892393683030,94.669749310980905,31.767333333333333,1.1370000000000005,4.5145405054137395,0.87106239657936158,0.52259592802240762
20240310190000,418.88814513211958,2.2759095986994491,0.38887811961470181,1,278.42228850707249,0,13.592517231645648,0,-0.99447027823952228,1,315.59108145156824,2.1370091319561353,7.3042638346971325,1.3002060897982624,1.6654023189946494,0.79242541512227338,0.56937141990714257,-55.515367571757047,-0.34224757632094077,96.117997412349908,175.73435453274971,210.30913919528308,263.28208608217363,94.643940649088549,31.762333333333334,1.4839999999999804,4.6288815769442566,1.2617459242079008,0.53601048935705076
20240310193000,418.86870448289227,2.1829250660344908,0.55359172922602018,0,254.54010658102573,0,-1.5059526582256608,2,-0.87988017754093661,1,297.44089431402210,2.7824318132032912,8.2875385006851783,1.3819809245435228,1.5896032161317433,0.85517950406016685,0.67964648690270368,-103.26232777838645,-0.18399740165432177,104.19227816190363,190.49671490269969,227.97591419866558,285.39879197062260,94.620664328993058,30.035666666666668,1.6783333333333417,4.8126106112202969,1.4340218853420765,0.49409881539641221
20240310200000,418.61592393700971,1.9995426156382297,0.61137761515848688,1,273.12732098050253,0,43.823096126792251,1,-0.84623790445741887,2,281.49714063353139,2.1549242722069972,7.2039352503318392,1.4197392261321382,1.1861711855274253,0.78151419219586249,0.71491917926573945,-112.00068560514659,-0.16964181868478601,116.60333258809457,213.18808069656563,255.13168359823337,319.39459283805832,94.613062875930723,26.503666666666668,2.1996666666666442,5.2475665860306888,1.9418782611433016,0.48227622065409237
20240310203000,418.81989356199739,2.1345567550984907,0.48762490125849878,1,235.57758945394633,0,16.969742220296965,0,-0.67623224318799580,1,287.39051713003795,2.2982413016730456,7.1324678347496109,1.3905473136501958,1.3855224132816668,0.74299475475616095,0.63898868789782381,-92.707329891279571,-0.20494603848780696,110.98411861679126,202.91436540064629,242.83667033251729,304.00269520873104,94.595359070312497,27.540333333333333,2.5756666666666774,5.3139951705138557,2.2735058712429463,0.46143503818339660
20240310210000,418.95769208851806,2.2047008727846675,0.27100454221936593,0,211.62795348661061,0,15.734333680761017,0,-0.54680043586513472,2,275.67202268860541,1.5363699247184182,6.0725680950576075,1.2495924663764744,1.2335008925504534,0.74593516840451934,0.47679506995758159,-42.866917611248851,-0.44323224198919647,87.530505822921739,160.03368106730699,191.51944306510424,239.75961619364404,94.572148802083333,27.593666666666667,3.0003333333333444,5.4726358590971396,2.6850435723199553,0.43096611310013583
20240310213000,419.05494866690617,2.1820037478659566,0.33256051084695920,0,128.00215169357350,0,8.4221722527924090,0,-0.40058782267421006,2,304.62962200494565,1.5533787365181655,6.8221123568204902,1.1250569072198824,1.0091184606718839,0.56223020564149317,0.52830341106387424,-96.406243986653422,-0.19708267031573576,119.13251006192515,217.81222375851087,260.66560182076455,326.32240177404219,94.563899690104165,27.092666666666666,3.1116666666666788,5.5541397771199605,2.8567257419162502,0.33106132503079289
20240310220000,419.10684453552238,2.1720893850195826,0.35657919571260777,0,129.30195658477601,0,18.886976217061079,0,-0.25369789577812707,2,286.21112489912889,1.9333377941760330,6.0022612074855459,1.2142929480996432,1.3228990693640146,0.59327454104089428,0.54724178180508620,-106.05828046416612,-0.17914678530376066,117.37989827644952,214.60789044780171,256.83083324599261,321.52172656862081,94.545436659722213,26.694666666666667,3.2536666666666747,5.6408664162612183,2.9808392071194589,0.32547532279478475
20240310223000,418.88504587554826,2.0486349321973689,0.35229963642428791,0,81.766109570988533,0,9.3242281636794839,0,0.24824108860380850,1,257.34859291977932,2.3146144337716392,6.0322594573432644,1.0396187735816922,1.0475368642123954,0.61484378829795205,0.54414538494092890,-164.89113897465799,-0.11522753810876459,113.55729219715127,207.61894737716580,248.46685339140845,311.05101629663659,94.551722588313339,24.769666666666666,3.4856666666666456,5.8846863805472855,3.2722779246166738,0.22254754299602514